Theta_e
276 277 278 278 278 278 278 278 279 279 278 278 278 277 278 279 278 278 279 278 278 277 277 277 277 278 279 282 284 285 286 287 288 289 289 290 290 291 291 292 292 292 293 293 294 294 294 295 295 296 296 297 298 299 300 301 301 302 303 303 303 304 304 305 306 307 308 308 309 310 311 312 313 314 315 316 317 318 318 319 319 319 321 322 324 327
276 277 278 278 278 278 278 279 278 278 277 276 277 277 277 276 276 277 277 278 278 277 277 277 277 277 277 280 283 285 286 287 287 288 289 290 290 291 291 291 291 292 292 293 293 293 294 294 295 295 296 297 298 299 299 300 300 301 301 302 302 302 303 304 305 306 306 307 308 309 309 311 312 312 314 314 315 316 316 317 317 318 319 320 322 324
276 276 277 278 278 278 279 278 278 276 275 276 276 277 276 275 275 276 276 277 277 278 277 277 277 277 277 279 282 284 285 286 287 288 289 289 290 290 290 290 291 291 292 292 293 293 293 294 295 295 296 297 297 298 298 299 299 299 300 300 301 301 302 303 303 304 305 306 307 308 308 309 310 311 312 313 313 314 315 315 316 317 318 319 320 322
275 276 277 278 278 279 279 278 277 276 276 276 276 276 275 275 275 276 276 277 277 277 277 277 277 277 277 278 280 283 285 286 287 287 288 288 289 289 289 290 290 291 291 292 292 293 293 294 294 295 295 296 296 297 297 297 298 298 299 299 300 300 301 302 302 303 304 305 306 307 307 308 309 309 310 310 311 312 313 314 315 316 317 318 319 320
276 276 277 278 278 278 278 277 277 277 277 277 276 275 275 275 276 276 277 277 277 277 277 277 277 277 277 278 280 282 284 285 286 287 287 288 288 288 289 289 290 290 291 291 292 292 293 294 294 294 295 295 295 295 296 296 297 297 298 298 299 299 300 301 302 302 303 304 305 306 307 307 308 308 309 309 310 311 312 313 314 316 316 317 318 319
276 277 278 278 278 278 277 277 277 277 276 276 275 275 275 276 276 276 276 276 277 277 277 277 277 277 277 278 280 282 284 285 285 286 286 287 287 288 288 289 289 290 290 291 291 292 292 293 293 293 294 294 294 294 295 296 296 297 297 298 298 299 300 300 301 302 303 303 304 305 306 306 307 307 308 308 309 310 311 312 313 314 316 316 317 318
276 277 278 278 278 277 277 276 276 276 275 275 275 275 276 276 277 276 276 276 276 277 277 277 277 277 277 278 280 282 283 283 284 285 285 286 286 287 287 288 289 289 290 290 291 291 291 292 292 292 292 293 293 294 294 295 295 296 296 297 298 299 299 300 301 301 302 303 303 304 305 306 306 307 307 308 308 309 310 311 312 314 315 316 316 317
276 277 277 277 276 276 276 276 276 275 275 275 275 275 275 276 276 277 276 276 276 276 276 277 277 277 277 277 278 280 280 280 281 282 283 284 285 286 286 287 288 288 289 289 290 290 290 291 291 291 292 292 293 293 294 294 295 295 296 297 297 298 299 300 300 301 302 302 303 304 305 305 306 307 307 308 308 309 309 310 311 312 314 315 316 316
276 276 276 275 275 275 275 275 275 275 275 275 275 275 275 275 275 276 276 276 276 276 276 276 276 276 276 276 277 278 279 280 280 280 281 281 282 283 285 286 287 288 288 289 289 289 289 290 290 290 291 291 292 292 293 294 294 295 295 296 297 298 299 299 300 301 302 302 303 304 304 305 306 306 307 307 308 309 309 310 311 311 313 314 315 315
276 275 275 275 275 275 275 275 275 275 276 276 276 276 275 275 275 275 274 275 275 276 276 276 275 275 276 276 277 277 279 280 281 282 283 283 283 284 285 285 286 286 287 287 288 288 288 289 289 290 290 290 291 292 292 293 294 294 295 296 297 297 298 299 300 301 302 302 303 304 304 305 306 306 307 307 308 308 309 309 310 310 312 313 313 314
275 275 275 275 276 276 276 276 276 277 277 277 277 276 276 276 275 274 273 274 274 275 276 276 276 276 276 276 277 277 278 278 279 281 283 283 284 285 285 285 285 285 286 286 286 287 287 288 288 288 289 289 290 291 291 292 293 294 295 295 296 297 298 299 300 301 302 302 303 304 304 305 305 306 307 307 308 308 308 309 309 310 311 311 313 313
275 275 275 275 276 276 277 277 277 277 277 276 275 275 275 276 275 275 273 273 274 274 275 275 276 276 276 276 276 277 277 277 277 278 279 280 281 282 282 282 283 284 284 284 285 285 286 286 287 287 288 288 289 290 290 291 292 293 294 295 296 297 298 298 299 300 301 302 303 304 304 305 305 306 307 307 307 308 308 309 309 310 310 311 312 313
275 276 276 276 276 276 276 276 276 276 276 275 274 274 274 275 275 275 274 274 274 274 275 275 275 276 277 277 277 277 277 277 277 277 277 278 278 279 279 279 280 280 281 281 281 282 284 285 286 286 287 287 287 288 289 290 291 292 293 294 295 296 297 298 299 300 301 302 303 304 304 305 305 306 306 307 307 308 308 309 309 310 310 311 312 312
275 276 276 276 276 276 276 276 275 275 275 275 275 275 275 275 276 275 275 274 274 275 275 275 275 276 277 278 278 278 277 277 277 277 277 277 277 277 278 278 279 279 279 279 279 280 283 283 283 284 285 285 286 287 288 289 291 292 293 294 295 296 297 298 299 300 300 301 302 303 304 304 305 306 306 307 307 308 308 309 309 310 310 311 312 312
275 276 275 275 275 276 276 276 275 275 275 275 276 276 276 276 275 275 274 274 274 275 275 275 275 275 276 277 278 278 278 277 277 276 276 277 277 277 277 277 278 279 279 279 279 280 282 282 281 281 282 283 284 285 287 289 291 292 293 294 295 296 297 297 298 298 299 300 301 302 303 304 304 305 306 306 307 307 308 309 309 310 310 310 311 312
276 276 275 275 275 275 276 276 275 275 275 276 276 276 275 275 275 275 274 274 274 275 274 274 274 274 275 277 278 278 279 278 277 277 277 277 278 278 278 277 277 278 278 278 278 279 280 280 280 280 281 283 285 287 288 290 291 292 293 294 295 295 296 296 297 297 298 299 300 301 302 303 303 304 305 306 306 307 307 308 308 309 310 310 311 312
276 276 275 275 275 275 276 276 276 276 276 276 276 276 275 275 275 275 275 275 274 274 274 274 273 273 274 275 277 278 279 278 278 278 277 277 278 279 278 277 277 277 278 278 278 278 279 279 280 281 281 284 286 287 288 290 291 292 293 293 294 294 295 295 296 296 297 298 299 300 301 302 302 303 304 305 305 306 307 308 308 309 309 310 311 311
276 276 276 275 275 275 276 276 276 276 276 276 276 276 276 276 276 276 275 275 275 274 274 274 274 273 273 274 276 278 280 279 278 278 278 278 278 278 277 277 277 277 277 277 278 278 279 279 280 281 282 285 287 287 288 289 290 291 292 292 293 293 294 295 295 296 297 297 298 299 300 301 301 302 303 304 305 305 306 307 308 308 309 309 310 311
276 276 276 275 275 276 276 276 276 276 276 276 276 276 276 276 276 276 276 276 275 275 275 274 274 274 274 275 276 279 281 280 279 278 277 277 277 277 277 277 277 277 277 277 278 279 279 279 281 283 285 286 286 287 288 289 289 290 291 291 292 293 294 294 295 296 296 297 298 299 299 300 301 301 302 303 304 305 305 306 307 307 308 309 309 311
277 276 276 276 276 276 276 276 277 277 277 277 277 277 276 276 276 276 276 276 276 276 276 275 275 275 276 276 278 280 281 281 279 277 276 276 276 276 276 276 276 276 276 277 278 278 279 279 280 282 284 285 286 286 287 288 289 290 290 291 292 293 293 294 295 295 296 297 297 298 299 299 300 301 302 302 303 304 305 305 306 307 307 308 309 310
277 277 277 277 277 276 276 276 277 278 279 279 278 277 276 276 276 276 276 277 277 277 277 276 276 276 277 277 278 280 281 280 278 276 275 275 275 275 276 275 275 275 275 276 277 278 279 279 279 280 283 284 285 286 287 288 289 290 290 291 292 292 293 293 294 295 295 296 297 297 298 299 300 300 301 302 303 303 304 305 305 306 307 308 308 310
276 277 277 278 278 277 277 277 278 279 280 279 278 277 277 277 276 277 277 277 277 277 277 277 277 278 279 279 279 279 280 279 277 276 275 274 274 275 276 275 275 275 275 276 277 278 278 278 279 280 282 284 285 286 287 288 289 289 290 290 291 292 292 293 294 294 295 296 296 297 298 299 299 300 301 301 302 303 304 304 305 306 307 307 308 309
277 278 278 279 278 278 278 278 279 280 281 280 279 279 278 278 278 277 278 278 278 278 278 278 279 279 278 278 278 278 278 278 277 276 274 273 273 274 275 275 275 275 275 276 277 278 278 279 279 280 282 285 285 286 287 287 288 289 290 290 291 291 292 293 293 294 295 295 296 297 297 298 299 299 300 301 301 302 303 304 304 305 306 307 308 309
279 279 279 278 278 279 279 279 280 280 281 281 281 281 281 281 280 280 280 279 279 278 278 277 277 277 277 277 277 277 276 276 276 275 274 273 273 274 275 275 275 275 275 276 277 277 278 279 279 280 282 283 285 286 286 287 288 288 289 290 291 291 292 293 293 294 295 295 296 297 297 298 299 299 300 301 301 302 303 303 304 305 306 307 307 308
280 279 279 279 280 281 281 281 282 282 282 282 281 281 281 282 281 281 280 279 278 277 277 276 275 275 275 276 276 275 274 274 275 274 274 273 273 274 275 275 275 275 275 276 277 278 278 278 279 280 280 281 283 285 286 287 287 288 289 290 290 291 292 293 293 294 295 296 297 297 298 299 299 300 300 300 301 302 302 303 304 305 306 306 307 308
283 283 282 282 283 284 284 284 284 284 284 283 281 281 280 280 280 279 278 278 277 277 276 274 273 273 274 274 274 274 274 275 275 276 275 274 274 274 275 275 275 275 275 276 278 278 278 278 278 278 279 280 282 284 285 286 287 288 289 290 290 291 292 293 294 295 295 296 297 297 298 299 299 300 300 301 301 302 302 303 304 304 305 306 307 307
285 285 285 285 284 284 284 284 284 284 284 284 283 282 281 280 278 277 276 276 276 275 274 272 272 272 272 273 273 274 275 276 276 276 275 275 274 274 274 275 276 276 276 277 277 278 278 278 278 278 279 279 281 283 285 286 287 288 289 290 290 291 292 293 293 294 294 295 296 296 297 298 299 300 301 301 301 302 302 303 304 304 305 305 306 307
283 283 283 283 283 283 283 283 283 283 283 283 283 283 282 279 277 275 274 275 275 274 273 272 271 271 272 272 273 274 275 276 275 275 276 275 274 273 274 275 276 276 276 276 277 278 278 278 278 278 278 279 280 281 284 286 287 288 288 289 290 290 291 291 292 292 293 293 294 295 296 297 298 299 301 301 302 302 303 303 304 304 305 305 305 306
281 281 281 281 281 281 281 281 281 281 282 282 282 282 281 278 276 275 274 275 274 274 273 272 272 272 272 272 273 274 274 275 275 276 276 275 274 274 275 276 276 276 276 275 275 276 276 277 277 277 278 280 281 281 283 285 286 286 287 287 288 288 289 290 291 291 292 293 294 295 295 297 298 299 300 301 302 302 303 303 303 304 304 304 304 305
276 277 277 278 278 279 278 278 278 279 281 281 281 281 280 278 276 275 275 275 275 274 273 273 273 273 272 272 272 272 272 273 275 276 277 275 274 274 275 275 276 276 276 274 274 273 274 275 276 277 278 280 280 281 281 282 283 283 284 285 286 287 288 289 290 291 292 293 294 295 296 297 298 298 299 300 301 302 303 304 304 304 304 304 304 304
273 274 274 274 275 275 276 276 276 277 279 280 280 280 279 277 277 276 276 276 275 274 273 273 273 273 273 272 271 271 271 272 275 277 277 275 274 274 275 274 275 275 276 275 273 272 272 274 275 277 278 278 279 280 280 281 281 282 282 283 284 285 287 289 290 291 292 293 294 295 296 297 298 299 299 300 301 302 303 304 304 304 304 303 303 303
273 274 274 274 274 274 275 275 275 275 276 277 277 277 278 277 277 277 277 276 276 275 274 274 273 273 273 272 272 271 272 272 275 277 277 275 274 274 275 274 275 275 276 276 275 273 272 273 274 276 277 278 278 279 280 281 281 281 282 282 283 284 287 288 289 290 291 293 294 295 296 297 298 299 299 300 301 302 303 303 304 304 304 303 303 303
274 274 274 274 274 274 274 274 274 274 275 275 276 276 277 277 277 278 277 277 277 276 275 274 274 273 273 273 273 273 273 274 276 278 278 276 275 275 275 275 275 275 276 276 276 275 274 274 275 276 277 277 278 279 280 281 281 282 282 282 283 283 286 287 288 289 290 291 292 292 294 295 296 298 299 300 301 302 303 303 304 304 304 303 303 303
274 274 274 274 274 273 273 273 273 274 274 275 275 276 276 276 277 277 277 277 277 276 276 275 274 273 273 273 273 273 274 275 277 279 279 277 275 275 275 275 275 275 275 276 276 276 275 275 275 275 276 277 278 279 279 280 281 282 281 282 282 283 284 286 286 287 288 289 289 289 291 292 294 296 298 300 301 302 303 304 304 305 305 304 303 303
273 274 274 273 273 273 273 273 273 274 274 275 275 276 276 276 276 276 277 277 277 277 276 276 276 275 274 273 273 273 273 274 277 279 279 277 276 275 275 275 275 275 275 275 275 275 275 275 275 275 275 276 277 278 279 279 280 281 281 282 283 283 284 284 285 285 286 287 287 288 289 291 293 295 298 300 301 302 303 304 304 305 305 305 304 304
273 273 274 273 273 273 273 273 273 274 274 274 274 275 275 276 276 276 276 276 277 277 277 277 277 277 276 275 274 274 274 275 277 279 280 278 277 276 275 275 276 276 275 275 275 275 274 274 275 276 276 276 276 277 278 279 279 280 281 281 282 283 283 284 284 284 285 285 286 287 288 290 292 294 297 300 301 302 303 304 305 305 306 306 305 305
274 273 274 273 273 273 273 273 273 273 273 273 274 274 275 275 275 276 276 276 276 277 277 277 278 278 278 277 277 276 276 277 278 279 279 279 278 277 276 276 276 276 276 275 275 275 274 274 275 275 275 275 275 276 277 278 279 279 280 280 281 282 282 283 284 284 284 284 285 286 288 289 291 293 295 299 301 303 304 304 305 305 306 306 306 306
274 274 274 274 274 273 273 273 273 273 273 273 274 274 275 275 275 276 276 276 276 276 276 276 277 277 278 279 279 278 278 278 278 279 279 279 278 277 276 276 276 277 277 276 276 275 275 274 274 274 274 275 276 276 277 278 278 278 279 280 281 281 282 283 283 284 284 285 286 288 289 290 291 292 294 297 300 303 304 305 305 306 306 306 306 306
274 274 274 274 274 274 274 273 273 274 274 274 274 275 275 275 276 276 276 276 276 276 276 276 276 277 277 278 278 279 280 279 279 279 279 279 279 278 277 277 277 277 277 277 277 276 275 274 274 274 274 274 275 276 277 278 278 278 278 280 280 281 282 283 283 284 285 286 288 289 290 291 292 293 294 296 299 302 304 304 305 305 305 305 306 306
275 274 274 275 275 275 274 274 274 274 274 275 275 275 275 275 275 276 276 276 276 277 277 277 277 277 277 278 279 279 279 279 279 279 279 279 279 279 278 277 277 277 278 277 277 277 276 275 275 275 275 275 275 276 276 277 277 278 279 279 279 280 282 283 283 284 285 286 286 287 288 290 291 292 294 296 298 301 303 304 305 305 305 305 305 304
276 275 275 275 276 276 275 275 275 275 275 275 274 274 274 274 274 274 275 275 276 276 276 277 277 277 277 277 278 278 278 278 279 279 279 279 279 279 278 278 278 278 278 278 277 277 277 276 276 276 276 276 276 276 277 277 278 279 280 279 279 280 282 283 283 284 284 285 285 286 287 288 289 291 292 295 297 300 303 304 304 305 305 305 304 304
276 276 275 275 275 275 275 275 275 276 275 275 274 273 273 273 274 274 274 274 275 275 275 275 275 275 275 276 276 277 278 278 278 279 279 279 278 278 278 278 278 278 278 278 277 277 278 277 277 276 276 276 276 276 276 277 278 280 280 280 280 281 282 283 283 283 284 285 286 286 288 288 289 290 291 293 296 299 302 304 305 305 305 305 305 304
276 276 276 276 276 276 276 276 276 275 275 274 273 273 273 273 274 274 274 274 274 274 275 275 275 274 274 274 275 276 277 277 278 279 279 279 279 279 279 279 279 279 278 278 277 277 278 278 278 277 277 278 277 277 276 277 278 279 280 280 281 280 280 281 282 283 285 286 287 288 289 289 290 291 292 293 295 298 300 303 305 306 305 305 305 304
276 276 276 276 276 276 276 276 275 274 274 273 273 273 273 274 274 274 274 274 274 274 274 275 274 274 273 273 274 275 276 277 278 278 279 280 280 280 280 279 279 279 279 278 277 277 277 278 278 278 279 279 278 277 277 277 278 278 279 280 281 280 280 280 281 282 283 284 286 287 289 290 290 292 293 294 295 297 299 302 304 306 307 306 305 305
277 277 277 277 277 276 275 274 274 274 273 273 273 273 273 274 274 274 274 274 274 274 274 274 274 273 273 273 273 274 275 276 277 277 278 280 281 282 281 281 280 280 280 279 279 278 278 277 278 278 279 279 279 278 278 278 278 278 279 280 281 281 281 282 282 283 283 284 284 285 287 289 290 290 291 292 294 296 298 301 303 306 307 307 306 305
277 277 277 277 276 275 275 275 274 273 273 273 273 273 273 273 274 274 274 274 273 273 274 274 273 273 272 272 273 273 274 274 275 276 277 278 279 280 281 281 281 281 280 280 280 280 279 279 278 278 279 278 278 278 278 278 278 278 279 280 281 281 281 282 282 283 284 284 285 286 287 288 288 289 289 291 293 295 298 300 302 305 306 307 306 306
277 277 276 276 275 275 275 274 274 273 272 272 273 273 273 273 273 273 273 273 273 273 273 274 273 272 272 272 273 273 273 273 274 275 276 277 278 279 279 280 281 281 281 280 281 281 280 280 280 279 278 278 277 277 277 278 278 278 279 279 280 280 280 281 282 283 284 285 286 287 288 288 288 288 288 290 292 295 297 299 302 304 306 307 307 306
277 277 277 276 275 275 274 274 273 273 272 272 272 273 273 273 273 273 273 273 273 273 273 273 272 272 272 272 273 273 274 274 274 275 276 276 277 278 278 279 279 280 280 281 281 281 281 281 281 280 279 278 277 276 277 278 278 279 279 280 280 280 280 281 282 283 285 285 286 287 288 287 287 287 288 290 291 293 296 298 301 304 306 307 307 307
277 277 277 276 275 275 274 274 273 272 272 272 272 272 272 273 274 274 273 272 272 273 272 272 272 272 272 272 273 274 275 275 275 275 275 276 276 277 277 278 278 278 279 279 280 280 280 281 281 281 281 280 278 277 277 278 279 279 280 280 280 281 281 282 283 284 285 286 286 287 288 288 288 289 289 290 291 292 294 297 300 303 306 308 308 308
278 277 277 276 276 275 274 274 273 272 272 272 272 272 272 272 272 273 272 272 272 272 272 272 272 272 272 272 273 274 274 274 274 275 275 276 276 276 276 277 277 277 277 277 278 278 278 279 280 282 283 283 281 280 278 278 279 279 280 281 281 281 282 282 283 284 285 286 287 287 288 289 289 290 290 290 291 292 294 296 298 301 305 308 309 309
278 278 277 277 276 275 274 274 273 273 272 272 272 272 271 271 271 272 272 272 272 272 272 272 272 272 272 273 273 274 274 274 274 274 275 275 276 276 276 276 276 276 275 275 276 276 276 276 277 279 282 285 285 283 280 279 279 279 280 281 281 282 283 283 284 285 286 287 287 288 288 289 289 290 290 290 291 292 293 295 297 299 303 307 309 309
Wind_Speed
10 10 11 13 13 12 11 10 9 8 7 7 7 8 9 10 10 11 13 13 12 10 10 9 10 11 14 19 23 25 27 27 27 27 27 27 26 26 26 25 24 23 22 21 21 20 19 18 18 17 17 17 17 17 17 18 18 18 18 18 18 18 18 18 18 18 17 17 16 16 16 17 17 18 17 15 14 14 14 14 14 15 16 16 14 11
10 10 10 13 13 13 10 9 7 6 7 8 9 9 10 10 10 9 10 10 10 10 9 9 10 10 11 15 19 24 26 26 27 27 26 26 26 26 25 25 24 24 23 22 21 21 20 19 18 17 17 17 17 17 17 17 17 18 18 18 18 18 18 18 18 18 18 18 17 17 16 17 17 18 17 16 15 15 14 14 14 15 15 16 16 14
10 10 10 11 11 11 9 7 6 5 6 8 9 10 10 10 9 9 8 9 9 9 9 9 9 10 10 12 17 22 24 25 26 26 25 25 25 25 25 24 24 23 23 22 22 21 21 20 19 18 17 17 17 17 17 17 17 18 18 18 18 18 18 18 18 18 18 18 18 17 17 17 17 18 18 17 16 15 15 14 14 14 14 15 16 15
10 10 10 9 9 8 7 6 6 6 6 7 9 9 9 8 8 8 8 8 8 8 8 9 9 9 9 10 13 18 22 24 25 25 25 25 24 24 24 23 23 22 22 22 22 21 21 21 20 20 19 19 18 18 18 18 18 18 18 18 18 18 18 18 18 18 18 18 18 17 17 17 17 17 17 16 15 14 14 14 14 13 13 14 15 15
10 9 9 8 7 6 6 6 6 7 7 7 8 8 8 7 7 7 8 8 8 8 8 8 8 8 8 8 11 16 21 23 24 24 24 24 24 23 23 22 21 21 21 21 21 21 21 21 21 21 20 20 19 19 18 18 18 18 18 18 18 18 18 18 18 18 18 18 17 17 16 16 16 16 16 16 15 14 13 13 13 13 13 13 14 15
9 9 8 7 6 5 5 6 6 6 6 6 6 7 7 7 7 7 7 7 8 8 8 7 7 7 7 8 12 16 19 21 22 23 23 23 23 22 22 21 20 20 20 20 20 20 21 21 22 21 21 20 20 19 19 18 18 18 18 18 18 18 18 18 18 18 18 18 17 17 16 16 16 16 16 15 14 13 12 13 13 13 13 13 13 14
9 8 7 6 5 5 5 6 6 6 5 5 6 6 7 7 7 7 7 6 7 7 7 7 7 7 7 9 12 15 17 18 20 21 21 21 21 21 20 20 20 19 19 19 19 20 20 21 21 22 21 21 21 20 20 19 18 18 18 17 18 18 18 18 18 18 18 18 17 17 16 16 15 15 16 15 14 12 12 12 12 12 12 12 12 13
9 7 6 5 5 6 6 6 5 5 5 5 6 7 7 7 7 7 7 6 6 5 6 6 7 6 6 7 9 11 11 13 13 14 16 17 17 18 18 19 19 19 19 19 19 20 20 21 21 21 22 21 21 20 20 20 19 18 18 17 17 17 17 18 18 18 18 18 18 17 17 16 15 15 15 14 13 12 11 11 11 12 12 12 12 12
9 8 6 6 6 6 7 6 5 4 4 5 6 7 8 8 8 7 6 6 5 5 5 6 7 7 7 6 6 8 9 10 10 10 11 11 11 13 15 16 17 18 18 19 19 20 20 21 21 21 21 21 21 20 20 20 19 19 18 17 17 17 17 17 17 17 18 18 18 18 17 16 16 15 15 14 13 12 11 10 10 11 12 12 12 12
8 8 7 7 6 6 6 7 6 5 4 5 5 6 6 8 8 8 7 6 5 5 5 6 8 8 8 6 6 6 8 10 12 13 14 13 13 14 15 15 15 15 18 18 19 20 20 20 21 21 21 21 20 20 20 19 19 18 18 17 17 16 16 16 16 16 17 17 18 18 17 17 16 16 15 14 13 12 11 10 10 10 10 11 11 11
7 7 7 7 6 6 6 6 6 5 5 5 5 5 5 6 7 7 9 8 7 7 6 7 7 8 8 7 6 6 7 8 9 11 13 14 15 16 15 15 14 15 17 17 18 18 19 19 20 20 20 20 20 19 19 19 18 18 17 17 16 16 16 15 15 15 16 16 17 17 17 16 16 16 15 14 13 12 11 10 9 9 10 10 11 11
6 6 6 6 6 6 6 5 5 5 4 4 5 5 5 5 5 6 8 9 9 8 8 7 7 7 7 7 7 6 6 6 6 6 7 8 9 10 10 10 11 12 13 14 15 16 17 18 19 19 19 19 19 19 18 18 17 17 17 16 16 15 15 15 15 15 15 15 16 16 16 16 15 15 15 14 13 12 11 10 10 9 10 10 10 10
6 6 6 7 7 6 6 5 5 5 4 5 5 6 6 5 4 5 6 8 9 9 8 8 7 6 6 6 6 5 5 5 5 5 4 4 4 4 4 5 6 6 7 8 8 10 13 15 16 17 17 17 18 18 18 17 16 16 16 16 15 15 14 14 14 14 14 14 15 15 14 15 15 14 14 14 13 12 11 10 10 10 10 10 10 10
7 7 7 8 7 7 6 6 6 6 5 5 5 6 6 5 5 6 6 8 8 8 8 8 8 7 5 6 5 5 5 4 4 4 3 3 3 3 3 4 4 5 5 5 6 7 10 11 11 12 15 16 16 17 16 16 16 15 15 15 15 14 14 13 13 14 14 14 14 14 14 14 14 14 13 13 12 11 11 10 10 10 10 10 10 10
7 8 8 8 8 7 6 7 7 7 6 5 5 5 6 6 6 7 7 8 8 8 8 8 8 7 5 5 4 4 4 4 3 3 3 3 3 2 2 3 4 5 4 5 6 7 9 8 7 8 10 12 14 14 14 14 14 14 14 14 14 14 13 13 14 14 14 15 14 14 14 14 13 13 13 12 12 11 11 11 10 10 10 10 10 10
7 7 8 8 8 8 7 6 6 7 7 6 6 6 7 7 7 7 7 8 8 7 7 7 8 7 5 4 3 3 4 3 3 3 4 4 3 2 2 3 4 5 5 6 6 6 6 6 6 6 8 11 14 15 15 15 14 14 14 14 14 14 14 14 15 15 15 16 15 15 15 14 14 13 13 12 12 11 11 11 11 11 10 10 10 11
6 7 8 8 8 8 8 7 7 7 7 6 6 6 7 7 7 7 7 7 6 6 6 6 6 6 4 3 3 3 3 3 4 4 6 5 3 2 2 2 4 6 7 7 7 7 6 5 5 6 7 11 14 15 16 15 15 15 16 16 16 16 16 16 16 16 16 16 16 16 15 15 14 14 13 13 13 12 12 12 11 11 11 11 11 11
6 7 8 8 8 8 8 7 6 6 6 7 7 7 7 6 6 7 7 7 6 6 6 6 6 5 5 4 3 3 3 3 4 4 6 5 4 3 1 2 4 6 7 8 7 7 6 5 5 6 8 13 15 16 17 17 17 17 17 17 17 17 17 16 17 17 17 17 16 16 15 15 15 15 14 14 14 14 13 12 12 11 11 11 11 11
7 7 8 8 8 8 8 7 6 6 7 7 7 7 8 7 7 7 7 7 7 7 7 7 6 5 5 5 4 3 2 2 3 4 5 6 5 3 2 2 4 6 8 8 7 7 6 5 7 10 13 16 17 18 18 18 18 18 18 18 17 17 17 17 17 17 17 17 17 16 16 15 15 15 15 15 15 15 14 13 13 12 11 12 12 12
8 7 7 7 8 8 8 8 8 8 8 8 9 9 8 8 7 7 7 7 7 7 7 7 7 6 5 5 4 3 1 2 3 4 6 7 6 5 2 3 4 6 8 7 6 6 5 5 7 9 13 15 17 18 18 18 18 18 18 17 17 17 17 17 17 17 17 17 17 17 16 16 15 16 16 16 16 16 15 14 13 13 12 12 12 13
8 8 7 6 6 7 8 8 8 9 11 11 10 9 9 8 8 7 7 7 7 7 6 6 6 5 4 4 3 2 2 3 4 5 5 6 6 5 3 3 4 5 8 7 6 5 5 5 6 7 10 14 16 17 18 18 18 18 18 18 18 18 18 18 18 18 18 18 18 17 17 16 16 16 17 17 17 17 16 15 14 13 13 13 13 13
8 8 8 7 7 7 9 10 11 13 13 13 11 9 8 7 7 7 7 7 6 6 6 5 5 4 4 4 4 4 3 3 3 4 4 6 7 6 3 3 3 5 7 6 5 5 5 5 6 7 10 14 16 17 18 18 18 18 18 18 18 18 18 18 18 18 18 18 18 18 17 17 17 17 17 18 17 17 16 16 15 14 14 13 14 14
9 8 8 8 8 8 9 10 11 11 12 11 9 8 6 6 7 7 6 5 5 5 4 5 5 5 5 6 6 5 3 2 2 2 4 7 7 6 3 3 4 5 6 6 5 5 5 6 6 7 10 14 16 17 18 19 19 19 19 19 19 18 18 18 18 18 18 18 18 18 18 18 18 18 18 18 18 17 17 16 15 15 15 14 14 14
8 8 7 7 7 7 8 9 9 8 8 7 6 6 5 5 6 6 5 5 5 5 6 6 7 7 6 6 6 4 2 1 1 1 3 6 6 5 3 3 5 6 7 6 5 5 6 6 6 6 7 12 16 18 19 19 19 19 19 19 18 18 18 17 17 17 17 17 18 18 18 18 18 18 18 18 18 17 17 16 16 16 15 15 15 15
7 7 7 7 9 10 11 11 11 11 10 8 7 7 7 8 9 9 8 7 7 6 6 6 6 6 5 6 5 4 2 2 2 2 3 4 5 5 4 3 5 6 7 6 6 6 7 7 6 6 6 10 14 17 18 19 19 18 18 17 17 17 16 16 16 16 16 16 17 17 17 17 18 18 18 18 18 18 17 17 17 16 16 16 16 16
13 13 13 15 17 19 21 21 21 20 19 15 11 9 8 8 8 8 7 6 5 5 5 6 6 6 5 5 5 4 3 2 3 3 3 4 5 5 4 3 4 6 7 7 6 6 7 7 7 6 6 7 11 14 16 17 17 16 16 15 15 15 15 15 15 14 14 15 15 15 16 16 17 17 17 18 18 17 17 17 17 17 17 16 16 15
20 21 22 22 22 22 22 22 23 23 24 21 18 15 11 8 7 7 6 5 4 4 5 6 6 6 6 5 5 4 4 3 2 2 3 3 5 5 5 4 4 6 7 7 6 6 8 8 8 7 6 6 7 10 13 14 14 14 14 13 13 13 13 14 14 14 14 14 15 15 15 16 16 16 17 17 17 17 17 17 17 17 17 15 14 12
20 20 20 21 21 21 21 21 21 22 22 22 22 21 15 9 7 6 6 5 4 5 5 6 6 6 5 5 5 4 4 3 2 2 2 3 4 4 4 4 4 5 6 6 6 7 8 8 7 7 6 6 6 7 9 11 12 12 12 12 13 13 14 14 15 15 15 15 15 16 16 16 16 16 16 17 17 17 17 17 17 17 15 12 9 7
17 18 19 19 19 20 20 19 19 19 20 21 21 20 14 9 6 6 6 5 5 5 6 6 6 6 6 6 5 5 4 4 3 3 3 3 4 4 3 4 4 4 5 5 6 6 6 5 5 5 5 6 5 5 5 7 8 9 10 12 13 14 14 15 15 15 15 15 16 16 16 16 16 16 17 17 17 17 17 17 17 15 11 9 7 6
11 13 13 14 15 15 15 14 14 15 18 19 20 18 13 8 6 6 6 5 6 6 6 6 6 6 5 6 5 5 4 3 2 2 2 2 3 3 3 4 4 4 4 5 5 5 4 3 3 3 3 4 4 3 3 4 5 5 6 9 10 11 13 14 14 14 14 14 15 15 15 16 16 16 17 17 17 17 18 18 16 12 7 7 6 6
8 9 9 9 9 9 9 9 10 11 13 15 15 14 11 8 6 6 5 5 6 6 6 6 6 6 6 5 5 4 3 2 1 1 1 2 3 3 3 4 4 4 3 3 4 5 5 3 2 2 2 3 3 3 3 4 4 4 4 5 6 8 10 11 12 12 12 12 13 13 13 14 15 16 16 17 18 18 18 18 16 12 7 6 6 6
7 7 7 7 7 7 7 7 7 8 8 9 9 9 9 8 7 6 6 5 5 6 6 6 6 6 6 5 5 5 3 2 2 2 2 3 3 3 3 4 4 4 3 3 3 4 5 4 3 3 3 4 4 4 4 4 4 4 4 4 4 5 8 9 9 9 9 10 10 11 12 13 13 14 16 17 18 18 19 19 17 12 8 7 7 7
7 7 6 7 6 6 6 6 6 6 7 6 6 6 7 7 7 7 6 6 5 5 6 6 6 6 6 6 6 6 5 4 4 5 5 4 3 3 3 4 4 4 4 4 4 4 4 5 5 5 5 5 4 4 4 4 4 4 4 4 3 4 6 6 6 6 6 7 8 9 11 12 13 14 15 16 17 18 19 20 18 15 10 8 7 7
7 7 7 7 6 6 6 6 6 6 6 6 6 6 6 6 6 7 7 6 6 6 6 6 6 6 6 6 6 6 6 5 5 6 6 5 4 3 4 4 5 4 4 4 4 4 4 6 6 6 6 5 5 4 3 4 4 4 3 3 3 3 4 4 4 4 5 5 5 6 8 9 10 12 13 15 16 17 19 20 20 19 16 11 8 7
7 7 7 6 6 6 6 6 6 6 6 6 6 6 6 6 6 6 6 6 6 6 6 6 6 6 7 7 7 6 6 4 5 6 7 5 4 4 4 4 4 4 4 4 4 4 4 6 7 7 7 6 5 4 3 3 3 3 3 3 3 3 3 3 4 4 5 5 5 5 5 6 7 8 10 12 14 16 18 20 21 21 20 16 12 9
6 7 7 6 6 6 6 7 7 6 6 6 6 6 6 6 6 6 6 6 7 7 7 7 7 7 7 7 7 7 7 5 6 7 7 6 5 4 4 4 4 4 4 5 4 4 4 6 7 8 8 7 6 5 3 3 2 2 3 3 4 4 4 4 4 4 4 4 4 5 5 5 6 7 8 11 13 15 18 20 21 22 22 20 18 14
6 6 6 6 6 6 7 6 6 6 6 6 6 6 6 6 6 7 7 7 7 7 8 8 8 8 9 8 8 8 8 7 7 7 8 7 6 6 5 5 5 6 5 5 5 5 5 6 7 7 7 7 6 5 4 3 3 3 3 3 4 4 4 4 4 4 4 5 5 5 5 5 6 6 7 10 12 14 16 19 21 22 23 23 21 19
6 6 6 6 5 5 6 6 6 6 6 6 7 7 7 7 7 7 7 7 7 8 8 8 8 9 12 12 12 11 10 10 10 10 10 9 7 7 6 6 6 7 6 6 6 5 6 6 7 7 6 6 7 7 6 5 4 4 4 4 4 4 4 4 4 4 4 5 5 6 6 6 6 6 7 8 8 9 10 12 15 18 21 21 22 22
6 6 6 6 6 6 6 6 6 7 7 7 7 7 7 8 8 8 7 7 7 8 8 8 8 8 10 12 13 14 13 12 12 11 11 9 8 7 7 7 7 7 6 6 6 6 6 6 6 6 6 7 7 6 5 5 4 5 5 5 5 4 4 4 4 4 4 5 5 6 6 5 5 6 6 6 7 7 8 8 10 12 14 14 15 18
6 6 6 7 7 6 6 7 7 7 7 7 8 8 8 8 7 7 7 7 7 7 8 8 8 8 9 10 11 11 12 11 10 10 10 9 8 7 7 7 7 7 6 6 6 6 7 7 7 8 8 7 7 7 6 5 5 5 7 6 5 4 3 3 3 3 3 4 5 6 6 5 6 6 6 6 7 7 7 7 7 8 10 9 9 10
7 7 6 7 6 6 6 7 7 7 7 7 7 7 6 6 6 6 6 6 6 6 6 7 7 7 7 7 8 9 9 10 10 10 9 9 9 9 8 7 7 7 6 6 6 6 7 7 8 8 8 8 9 9 9 7 7 8 8 7 6 6 6 6 5 4 4 4 5 5 6 6 7 7 7 7 7 7 7 6 6 7 8 8 8 8
8 8 7 6 6 6 5 6 7 7 7 7 7 6 6 6 6 6 7 6 6 6 6 6 6 6 7 7 7 7 8 8 9 10 10 10 10 10 9 8 7 7 6 6 6 7 7 8 8 8 8 8 8 8 8 8 8 8 8 7 7 8 8 7 5 3 4 5 5 5 6 6 6 6 7 7 7 7 7 7 7 8 9 8 8 8
7 7 7 6 6 5 6 7 7 7 7 6 6 7 6 6 6 6 7 7 7 7 7 6 6 6 7 7 6 6 6 6 8 9 9 10 10 10 9 9 8 7 7 6 6 7 7 8 8 8 8 8 8 9 10 9 8 8 7 7 6 6 5 4 3 2 3 4 5 5 5 5 5 5 6 7 7 7 8 9 9 10 10 9 9 8
7 6 6 6 5 5 5 5 6 6 6 7 7 7 6 6 7 7 7 7 7 7 7 6 6 7 7 7 7 6 6 5 6 7 8 9 10 9 9 10 9 8 8 7 6 6 7 7 8 8 7 7 8 9 10 9 9 8 6 6 7 7 7 5 4 4 4 4 4 5 5 6 6 6 6 7 7 7 8 8 8 9 10 9 9 8
6 6 6 5 5 5 5 5 6 6 6 7 7 7 7 7 7 7 7 7 7 7 7 7 6 6 6 6 6 6 6 5 5 5 6 8 10 11 9 8 8 8 8 7 7 6 6 7 7 7 6 7 8 9 10 10 9 9 8 7 8 8 8 7 6 6 6 5 5 5 6 6 6 7 7 7 7 7 8 8 8 8 9 9 9 9
6 6 6 5 5 5 6 6 6 6 6 7 7 7 7 7 6 6 7 7 7 7 7 7 6 6 7 7 7 6 6 6 5 5 4 4 5 6 6 6 6 6 6 6 7 7 7 7 7 6 6 7 8 9 10 10 9 9 8 8 7 7 8 8 8 7 7 7 6 6 6 6 7 7 7 8 8 8 8 8 8 9 9 9 9 10
6 6 6 5 5 5 5 6 6 6 6 7 7 7 7 7 7 7 7 7 7 7 7 7 6 6 7 7 7 7 7 7 7 6 5 4 4 4 4 5 6 7 7 7 7 8 8 8 8 8 7 7 8 9 10 9 9 9 8 7 7 7 7 8 7 7 6 7 7 7 7 6 7 7 8 8 8 8 8 8 9 9 9 9 9 10
7 7 6 6 5 5 5 6 6 6 6 7 7 7 7 7 8 8 7 7 7 7 7 7 7 7 7 7 7 7 8 8 7 7 6 5 5 4 4 4 5 6 7 7 8 9 9 10 10 10 9 9 9 9 9 9 9 8 8 7 7 7 8 8 7 6 6 7 8 8 7 7 7 7 7 7 7 8 8 8 9 9 9 9 9 10
7 7 6 6 5 5 5 6 6 6 7 7 7 7 7 8 9 9 8 7 7 7 7 7 7 7 7 7 7 8 8 8 7 7 6 5 5 5 4 4 4 5 5 6 7 8 8 10 11 12 12 11 11 10 10 9 8 8 7 7 7 8 8 8 7 6 6 7 8 9 8 7 7 6 6 7 8 9 9 8 9 9 10 9 10 10
7 7 6 6 5 5 5 6 6 6 7 7 8 7 7 7 7 7 7 7 7 6 7 7 8 8 8 8 8 8 8 7 7 6 6 5 5 5 5 5 5 5 5 5 4 4 5 6 8 11 14 15 14 12 10 9 8 8 7 7 7 7 8 8 7 6 6 7 7 8 9 8 7 7 7 8 9 10 9 9 9 9 9 9 10 10
8 7 7 6 6 5 5 5 5 6 6 7 7 7 7 7 7 7 6 6 7 7 7 7 7 8 8 8 8 8 8 7 7 7 7 5 5 5 6 6 6 6 5 5 4 4 3 4 4 6 10 16 18 17 12 10 8 8 8 8 7 7 7 7 7 7 7 7 7 7 8 8 8 8 8 9 9 9 9 9 9 9 9 10 10 10
Wind_Direction
282 285 288 288 288 289 289 289 292 295 298 301 303 304 304 305 305 304 305 305 302 299 296 295 295 296 298 303 305 307 308 310 311 312 313 313 314 315 315 316 316 316 316 315 314 314 313 312 311 310 309 307 307 306 306 308 313 318 323 326 326 326 327 327 328 327 326 324 323 322 322 323 325 327 331 341 349 356 359 356 353 351 349 348 345 338
281 283 285 287 287 288 289 292 295 298 301 303 304 304 306 306 305 303 302 300 297 295 295 296 296 295 294 298 302 305 307 308 309 310 311 312 313 314 315 315 316 316 315 314 314 313 312 311 310 310 309 309 310 310 311 313 316 319 322 322 322 322 323 323 324 323 322 321 320 320 320 321 323 324 327 336 344 350 353 353 352 350 348 348 347 345
284 285 285 287 288 288 290 296 298 299 298 299 300 302 304 304 303 301 300 299 297 295 294 294 295 295 293 295 300 303 304 306 307 309 310 311 313 314 315 315 315 315 314 314 314 313 313 313 313 313 314 314 315 316 316 316 317 317 318 317 317 317 318 318 318 318 318 317 317 316 317 318 320 321 323 330 337 343 347 348 349 348 347 346 346 345
283 285 287 289 289 289 290 296 300 300 297 296 297 299 300 299 298 296 296 296 295 295 293 292 292 293 293 294 298 300 302 304 306 308 310 312 313 314 314 314 314 314 314 314 314 315 315 315 316 317 317 317 318 317 315 314 313 312 312 312 312 312 312 312 312 312 313 312 312 312 313 315 316 317 318 323 329 335 340 343 345 346 345 344 343 344
280 283 288 291 292 292 292 296 297 297 296 295 295 296 297 294 293 293 293 293 294 294 294 294 293 292 293 294 297 299 301 303 306 308 310 311 312 313 313 313 313 313 314 314 315 316 316 317 317 317 317 316 315 313 310 308 307 306 306 306 306 306 306 306 306 307 307 307 307 307 308 310 310 311 311 315 320 327 334 338 341 341 341 341 341 341
281 284 289 292 294 295 296 296 296 296 297 295 294 294 293 292 291 292 293 294 295 295 295 295 294 293 293 293 296 298 301 303 306 307 309 310 311 312 312 312 313 313 313 314 315 316 316 316 316 315 314 312 309 307 305 303 302 301 300 301 301 301 301 301 302 302 302 302 302 302 303 304 304 304 305 307 312 319 327 333 336 337 337 338 338 338
284 286 289 290 291 290 291 291 292 294 295 296 297 296 294 293 292 292 292 293 294 294 295 295 294 292 291 292 295 298 301 303 304 305 306 308 309 310 311 311 312 313 313 314 315 315 315 314 313 312 310 308 306 304 302 300 298 297 296 296 296 296 296 297 297 298 298 298 298 298 298 298 298 298 298 301 306 312 321 327 331 332 333 333 334 335
285 286 286 287 288 288 286 285 286 287 288 293 296 298 298 296 294 293 291 290 290 292 295 297 296 295 293 291 293 296 298 299 300 301 303 304 306 307 308 309 310 312 313 314 314 314 314 313 311 310 308 306 304 302 300 298 296 294 293 292 291 291 292 293 294 294 295 295 295 295 294 294 294 294 294 297 300 306 314 321 325 327 327 328 329 330
281 284 286 284 285 287 289 287 284 281 280 285 289 294 297 297 297 295 293 292 291 293 297 299 299 298 296 291 290 291 292 293 294 295 297 299 301 303 305 307 309 311 312 313 313 313 312 311 310 309 307 305 303 301 298 296 294 292 290 289 288 288 288 288 289 291 292 292 292 292 292 292 291 292 292 294 297 302 308 314 318 320 321 321 322 324
274 280 284 283 282 283 287 290 290 286 278 278 279 283 288 293 296 298 298 297 296 297 298 298 299 299 298 296 292 290 291 292 293 294 295 296 298 300 302 305 307 309 309 310 310 310 310 309 309 307 306 304 302 300 297 295 292 290 289 287 286 285 284 284 285 286 287 288 289 289 290 290 290 290 291 292 294 298 302 306 310 312 313 313 314 316
275 278 282 285 285 285 285 288 290 289 283 279 276 275 276 283 292 298 301 301 301 300 298 295 294 296 298 298 296 292 291 290 290 291 292 293 295 297 299 301 303 305 306 307 307 307 307 306 306 305 304 303 301 299 297 294 291 289 287 285 284 282 281 281 282 282 283 284 284 285 286 287 288 288 288 289 291 293 296 299 301 303 304 304 305 307
279 283 286 290 293 294 292 289 288 287 286 285 284 284 282 283 288 293 296 298 300 300 298 294 291 290 292 294 294 292 289 286 284 284 284 286 288 290 294 297 299 301 302 303 303 303 303 302 302 302 302 302 300 299 296 293 291 288 286 284 282 281 280 279 279 279 279 280 280 281 282 283 283 283 284 284 285 287 289 291 292 293 294 295 296 298
285 291 295 297 297 296 296 296 295 295 293 292 292 292 292 292 291 289 288 290 292 294 295 293 291 288 284 284 284 283 282 280 278 278 277 277 277 279 285 290 292 295 297 298 297 296 298 299 300 300 301 300 299 297 295 292 289 286 283 281 279 278 278 278 278 278 278 277 278 278 278 278 278 278 278 278 279 280 282 283 283 284 285 286 288 289
298 301 300 297 296 296 298 299 299 299 297 294 291 290 290 291 290 287 284 284 286 288 290 289 289 287 284 279 274 270 272 274 276 275 274 271 268 269 276 283 287 289 291 291 289 289 291 295 297 298 298 298 297 295 293 289 285 282 278 277 276 276 277 278 279 280 280 279 278 277 276 275 274 273 273 274 275 276 277 277 277 278 279 280 281 282
302 301 297 295 295 297 300 300 299 297 294 293 291 289 288 286 284 283 282 283 285 286 287 286 285 284 281 275 267 261 263 268 273 276 278 273 264 255 258 278 286 289 289 288 286 286 289 291 291 290 291 290 289 287 285 281 278 275 275 275 276 278 281 283 284 283 283 281 280 278 277 275 274 273 273 274 275 276 276 275 275 275 274 275 275 276
296 294 293 294 296 297 299 298 297 295 293 292 290 287 286 283 280 279 279 281 283 285 285 286 286 285 280 267 256 252 259 265 271 278 284 282 275 259 243 273 287 290 289 286 285 286 287 284 280 278 281 282 282 281 281 278 276 276 278 279 282 283 285 285 284 283 281 280 279 278 277 277 277 277 277 277 278 277 276 275 274 273 272 272 272 272
291 292 292 294 295 296 297 296 293 292 292 290 286 282 278 276 275 274 274 276 278 279 279 283 286 289 289 281 264 250 251 263 274 281 286 286 284 274 244 268 284 288 289 285 284 284 286 282 279 277 277 279 280 281 281 281 281 282 283 285 285 285 284 283 281 279 278 277 277 276 277 277 278 279 280 280 279 278 276 275 273 271 271 270 270 269
290 291 293 293 294 295 297 296 294 292 290 287 284 279 273 268 266 266 266 268 271 273 274 276 277 280 287 289 281 266 257 269 280 285 287 287 287 285 264 265 276 281 284 283 282 281 281 278 273 272 275 279 281 282 283 284 284 284 285 285 284 283 281 279 278 277 276 275 275 275 275 277 278 279 280 280 278 277 275 273 271 270 268 269 268 268
291 291 292 292 293 294 295 294 293 292 290 287 284 281 277 271 266 263 262 263 264 266 268 270 270 271 275 278 282 286 293 292 291 292 292 292 292 292 285 270 273 276 278 279 280 280 278 274 272 274 278 281 282 283 283 283 282 282 281 281 280 279 278 277 276 276 275 275 275 274 274 275 275 275 276 276 275 274 272 271 269 267 266 266 266 265
289 288 287 290 292 293 292 290 290 289 287 285 282 279 276 273 270 265 262 261 261 261 263 265 267 269 272 275 282 295 342 328 308 299 296 293 292 291 284 270 271 275 277 277 278 279 280 275 275 277 280 281 281 281 280 280 279 279 278 278 278 277 277 276 276 275 275 275 274 274 273 272 271 270 270 270 270 270 269 268 267 265 263 263 263 263
286 284 283 285 289 291 291 291 289 287 284 281 278 275 272 271 269 266 262 262 263 264 264 264 266 270 275 281 290 309 343 325 310 301 296 292 289 287 282 268 269 273 276 278 278 278 277 275 274 274 277 278 279 279 279 279 278 278 278 278 277 277 276 276 275 275 274 274 273 272 270 268 267 265 265 265 265 265 265 265 264 263 261 260 260 260
279 279 280 281 281 283 286 288 287 285 281 278 275 271 270 271 272 272 271 271 270 269 268 269 275 283 295 297 299 303 307 300 295 294 296 291 288 286 284 273 271 275 277 280 281 281 276 274 272 272 273 277 278 279 279 279 279 279 279 278 277 276 275 275 274 273 272 271 270 269 267 265 263 262 261 261 260 261 261 261 261 260 259 257 256 256
267 271 277 279 278 279 282 284 284 281 278 274 270 267 269 271 273 275 277 279 281 284 288 292 294 294 292 291 290 289 286 271 265 277 289 286 287 289 294 286 280 279 279 282 286 286 281 275 272 271 273 277 278 279 280 280 279 279 278 278 276 275 274 273 271 270 268 267 266 265 263 261 260 258 257 257 257 257 257 258 258 257 255 254 252 252
261 267 274 277 277 277 279 281 281 282 281 279 277 276 277 280 285 289 296 299 299 297 295 293 290 286 282 283 284 284 279 247 229 256 275 279 282 287 295 291 285 282 281 284 287 287 283 278 273 270 272 277 278 279 279 279 279 278 277 276 275 274 272 270 268 266 264 262 261 260 259 257 256 254 254 254 253 254 254 254 254 253 253 251 249 249
277 278 281 283 286 289 292 294 296 299 301 302 301 300 299 299 299 299 298 294 290 288 286 286 286 286 289 293 293 290 283 246 232 244 263 273 278 282 285 285 284 285 285 286 285 284 284 282 279 275 273 274 276 277 278 278 278 278 278 276 275 273 271 269 266 263 261 259 257 256 255 253 252 251 250 250 250 250 250 250 250 250 250 249 247 246
296 296 296 297 299 301 303 304 306 308 309 309 309 307 305 302 298 293 287 285 288 294 299 296 293 292 295 294 291 285 279 252 233 233 250 269 278 281 283 282 283 284 287 287 287 286 287 285 282 278 271 270 273 275 276 278 279 279 279 278 276 274 271 269 267 264 264 262 260 258 256 254 252 249 247 246 246 246 246 247 247 248 248 247 246 245
301 301 301 302 303 305 306 308 309 310 311 311 310 309 306 303 298 295 294 302 313 317 309 299 294 291 290 285 281 280 280 272 249 228 233 263 275 280 284 286 285 286 287 288 289 288 287 283 281 277 272 269 270 272 275 277 280 282 283 283 282 280 278 277 276 274 273 271 269 265 262 258 255 252 249 246 245 244 243 244 245 245 246 246 245 243
304 305 306 305 305 305 306 308 310 311 311 311 310 309 309 308 306 305 308 318 321 312 297 290 288 288 287 285 284 283 284 279 263 237 227 255 268 274 281 283 283 285 289 292 291 287 282 277 274 272 269 266 265 267 271 276 281 286 289 290 290 290 288 286 284 282 279 276 273 269 265 261 257 254 250 247 245 243 241 241 242 243 243 243 242 240
307 307 306 305 304 305 306 307 308 308 308 309 309 311 313 313 311 309 309 311 305 295 286 283 283 284 287 288 288 285 281 273 256 239 232 250 261 269 278 282 285 290 298 299 296 289 276 264 257 255 259 260 260 260 265 275 283 290 293 291 290 289 287 285 283 281 278 276 272 269 265 261 257 253 250 247 244 242 240 239 239 239 239 238 236 235
307 306 304 303 302 302 303 303 302 302 304 306 309 311 313 311 305 298 296 294 289 284 282 282 282 283 286 289 289 285 276 262 242 224 218 247 262 273 284 288 291 297 304 305 303 298 286 266 248 241 251 261 264 265 266 274 280 283 283 283 283 282 282 281 280 279 277 274 271 268 264 260 256 251 248 245 243 240 238 236 234 233 230 229 229 229
303 303 301 299 299 298 297 295 294 296 300 303 306 306 306 300 292 285 281 280 279 278 280 281 282 282 284 287 287 284 279 261 229 205 198 255 271 279 287 287 288 288 290 294 300 303 302 294 276 255 264 277 279 278 275 273 269 266 263 269 272 275 277 279 280 280 278 277 274 270 266 262 256 251 246 243 240 238 236 233 231 227 222 221 222 223
299 299 297 296 295 294 293 292 293 294 296 297 297 296 293 291 287 283 278 276 275 275 277 279 280 279 278 276 275 276 278 276 269 266 269 271 273 274 275 277 278 277 269 262 270 284 296 299 299 298 295 291 287 281 275 271 264 259 257 260 264 272 277 280 283 284 284 284 284 281 277 270 263 256 249 243 239 235 233 230 228 224 217 215 216 219
300 299 297 296 294 293 292 292 292 292 292 291 289 287 286 285 285 283 280 276 274 275 276 279 280 279 276 272 269 269 271 272 273 273 272 269 268 269 267 268 270 270 265 253 251 258 271 285 294 300 300 294 288 281 276 272 267 261 256 259 264 271 277 281 284 285 287 288 290 289 285 279 271 262 253 245 239 235 231 228 225 221 215 212 212 214
301 300 298 297 296 294 292 291 290 290 289 289 288 287 286 285 284 284 282 278 275 272 272 273 275 276 277 274 271 268 268 267 270 271 269 264 263 266 267 266 266 267 267 260 256 256 264 275 284 293 296 294 290 283 277 273 269 265 256 257 263 271 276 279 281 281 281 283 284 284 283 279 273 265 256 247 240 234 230 226 223 219 215 212 209 208
300 300 301 300 300 299 298 296 294 292 291 290 290 291 290 288 285 283 280 277 274 270 266 266 267 268 271 273 274 273 271 269 270 271 268 261 259 263 266 262 262 263 266 266 265 266 271 275 280 285 291 294 293 287 277 267 266 265 262 260 264 270 275 277 278 279 279 278 276 274 274 273 269 263 255 246 239 233 229 225 222 219 215 212 209 206
301 303 304 304 304 304 304 303 302 300 298 295 293 292 291 289 286 283 280 277 275 273 270 267 264 263 263 266 269 272 274 273 270 267 264 258 256 257 262 260 259 260 262 265 265 267 272 277 280 282 285 288 290 291 286 276 271 272 275 272 272 273 274 274 274 274 275 275 273 271 269 268 266 262 257 246 239 233 228 224 221 218 215 213 211 209
303 305 307 307 307 307 307 307 306 305 303 300 298 296 293 290 288 285 282 278 276 274 274 272 269 266 263 262 264 266 271 272 269 264 259 255 252 251 255 258 257 256 256 260 263 266 270 276 280 281 280 280 282 287 294 297 295 290 283 280 278 277 274 272 268 265 266 266 267 266 263 262 262 263 264 253 244 236 229 224 221 218 215 214 213 212
305 306 307 308 308 308 309 309 309 308 305 304 301 299 296 292 289 286 284 280 276 273 272 271 270 268 266 266 266 266 268 267 265 261 256 251 247 246 249 254 254 251 249 252 256 261 265 271 276 279 279 276 276 279 287 295 299 297 293 287 280 274 269 264 258 255 255 258 261 261 259 255 254 256 259 255 248 237 226 220 217 216 215 214 214 214
305 305 306 308 309 310 311 310 308 307 305 302 300 297 296 294 291 289 285 282 277 274 270 270 269 268 266 266 266 266 267 265 263 260 256 251 246 244 247 251 251 249 245 243 244 247 252 258 264 270 275 278 279 280 283 286 290 294 298 296 288 275 259 253 248 247 252 260 266 268 265 260 254 251 249 248 244 235 221 212 208 207 207 209 213 215
304 304 304 306 308 309 308 307 305 304 303 300 299 298 297 297 295 293 289 284 281 277 274 271 270 269 268 267 267 267 267 266 265 263 260 254 249 246 247 250 252 250 245 239 236 236 239 246 253 259 264 271 278 282 283 281 282 287 294 296 294 288 281 275 267 261 260 262 266 269 270 268 264 259 252 247 242 236 225 212 203 198 197 197 201 207
307 306 305 305 306 306 304 303 303 303 303 303 303 303 302 301 300 299 296 292 288 285 283 280 278 276 273 270 268 266 265 264 263 262 259 254 250 248 248 249 250 250 247 241 236 233 232 239 246 251 256 263 270 275 276 275 275 277 281 282 284 288 292 285 277 268 261 258 257 256 258 261 262 261 259 253 249 244 236 220 205 196 194 195 195 195
307 306 305 305 305 305 304 303 304 305 307 308 307 306 304 304 304 304 304 302 299 295 293 291 289 286 283 279 273 268 263 262 260 259 257 253 249 246 245 246 246 247 246 243 240 236 234 237 242 247 250 256 263 269 272 271 270 268 266 270 279 286 288 280 268 252 246 250 249 247 248 251 253 254 256 256 254 251 244 229 212 200 194 195 195 196
303 302 301 301 300 300 300 304 308 311 314 313 310 307 304 304 306 307 307 305 304 302 301 297 294 292 290 288 285 278 269 260 257 256 256 252 248 245 242 242 242 242 242 243 243 242 240 239 241 244 247 250 256 262 268 271 269 265 259 259 266 275 279 277 271 258 247 253 253 252 250 251 251 253 254 254 253 250 245 233 219 207 198 196 195 197
297 297 298 299 300 302 306 311 314 315 316 313 310 308 307 308 309 310 310 307 305 305 305 302 298 295 291 289 290 288 284 274 264 258 256 255 251 246 243 240 239 238 236 238 242 245 246 243 242 243 244 245 249 254 260 265 265 263 256 250 248 251 256 268 278 280 273 266 263 262 262 265 267 267 264 258 252 246 241 234 224 212 201 197 196 198
293 297 300 304 309 313 316 315 315 315 315 312 310 309 310 312 313 313 312 309 308 307 307 306 303 300 296 294 295 295 295 292 285 273 263 260 259 257 252 247 243 239 236 236 239 242 246 248 248 247 244 243 245 248 253 258 261 262 258 251 248 248 251 259 263 265 264 264 262 261 262 266 271 272 268 261 252 244 237 231 224 215 204 198 196 198
299 303 306 310 313 315 315 315 316 316 314 312 311 311 312 314 314 313 312 311 310 309 307 306 304 301 299 300 301 301 300 298 296 291 281 268 261 257 255 252 250 247 245 242 242 242 244 248 251 252 251 248 247 247 247 250 254 258 258 253 251 252 255 255 254 252 253 256 257 257 255 257 259 261 261 259 255 248 239 231 224 217 208 200 197 198
307 308 309 311 312 312 313 316 318 318 316 314 314 313 314 315 315 315 314 315 313 311 308 306 303 299 297 299 300 301 301 300 299 298 295 288 279 269 262 257 254 252 252 249 247 245 244 245 246 246 246 248 250 249 247 244 246 249 253 251 250 250 253 252 250 248 247 249 251 251 250 249 249 251 255 258 258 253 244 234 227 220 213 205 200 198
309 309 309 309 311 313 315 318 320 319 317 315 314 314 316 318 319 320 318 318 316 313 311 309 305 301 297 297 297 297 297 297 298 299 300 299 296 290 279 270 262 257 254 253 251 250 247 244 241 239 237 241 246 250 250 245 242 243 245 246 245 246 249 251 251 247 244 244 244 243 242 241 243 247 254 258 256 251 243 234 227 221 216 209 203 200
309 308 308 310 312 314 316 319 320 319 317 316 315 315 316 317 320 321 317 316 315 313 312 310 307 304 301 299 297 296 296 296 296 297 300 301 301 300 295 288 281 274 266 258 254 251 249 245 239 234 230 231 237 243 249 246 243 240 241 240 240 242 247 250 250 246 241 241 239 237 234 236 239 243 251 253 252 248 241 235 228 222 217 211 206 202
308 308 309 310 312 314 315 317 318 319 317 316 316 316 316 317 319 318 315 314 313 312 311 310 308 305 303 301 299 299 298 297 297 297 298 300 303 303 302 298 296 292 287 277 268 262 257 252 242 234 227 224 225 230 239 242 242 239 238 236 235 236 241 247 247 244 239 238 235 232 230 232 234 236 241 247 248 247 243 238 231 225 218 213 208 204
310 311 311 312 312 312 314 316 317 317 316 316 316 315 316 317 317 317 316 315 315 313 312 310 307 305 303 301 301 300 301 300 299 299 298 300 302 302 301 299 298 298 298 296 293 290 285 282 269 250 231 222 219 219 225 231 234 236 237 235 233 232 235 241 242 242 238 236 232 228 226 227 228 229 232 238 241 243 240 236 232 226 219 214 209 206